GW0029 Weather Reports


Display with metric or nautical units.
time (UTC)temp
F
wind
direction
speed
MPH
gust
MPH
rain 1hr
in
rain 24hr
in
rain mn
in
humidity
%
barometer
mb
20260906060004 58 276 4.0 9.0 0.00 0.00 0.00 89 1016.0
20260906055504 58 259 4.0 9.0 0.00 0.00 0.00 89 1016.0
20260906055003 58 258 4.0 8.0 0.00 0.00 0.00 89 1016.0
20260906054505 58 264 5.0 10.0 0.00 0.00 0.00 89 1016.0
20260906054004 58 259 4.0 11.0 0.00 0.00 0.00 90 1015.0
20260906053505 58 267 4.0 11.0 0.00 0.00 0.00 90 1015.0
20260906052504 57 270 5.0 10.0 0.00 0.00 0.00 90 1015.0
20260906052004 57 270 5.0 10.0 0.00 0.00 0.00 90 1015.0
20260906051505 57 269 5.0 12.0 0.00 0.00 0.00 90 1015.0
20260906050505 57 273 5.0 12.0 0.00 0.00 0.00 91 1015.0
20260906050004 57 270 5.0 10.0 0.00 0.00 0.00 91 1015.0
20260906045504 57 261 5.0 10.0 0.00 0.00 0.00 91 1015.0
20260906045003 57 268 5.0 10.0 0.00 0.00 0.00 90 1015.0
20260906044505 57 270 6.0 10.0 0.00 0.00 0.00 90 1015.0
20260906044004 57 272 4.0 10.0 0.00 0.00 0.00 91 1014.0
20260906043504 57 266 4.0 10.0 0.00 0.00 0.00 90 1014.0
20260906042504 57 254 6.0 14.0 0.00 0.00 0.00 90 1014.0
20260906042004 57 264 6.0 11.0 0.00 0.00 0.00 90 1014.0
20260906041504 57 264 5.0 11.0 0.00 0.00 0.00 90 1014.0
20260906041004 57 261 4.0 10.0 0.00 0.00 0.00 90 1013.0
20260906035004 57 274 7.0 13.0 0.00 0.00 0.00 90 1014.0
20260906034505 57 266 7.0 13.0 0.00 0.00 0.00 90 1014.0
20260906034004 58 253 6.0 12.0 0.00 0.00 0.00 90 1015.0
20260906033504 58 247 5.0 9.0 0.00 0.00 0.00 90 1015.0
20260906033003 58 256 5.0 10.0 0.00 0.00 0.00 90 1015.0
20260906032504 58 257 6.0 15.0 0.00 0.00 0.00 90 1014.0
20260906032004 58 258 6.0 15.0 0.00 0.00 0.00 90 1014.0
20260906031003 58 265 6.0 12.0 0.00 0.00 0.00 90 1014.0
20260906030504 58 267 5.0 10.0 0.00 0.00 0.00 90 1014.0
20260906030004 58 256 7.0 13.0 0.00 0.00 0.00 90 1014.0
20260906025505 58 256 6.0 13.0 0.00 0.00 0.00 90 1014.0
20260906025004 58 264 5.0 10.0 0.00 0.00 0.00 90 1014.0
20260906024504 58 266 7.0 15.0 0.00 0.00 0.00 90 1014.0
20260906024003 58 261 7.0 15.0 0.00 0.00 0.00 90 1014.0
20260906023506 58 269 7.0 12.0 0.00 0.00 0.00 90 1014.0
20260906023003 58 276 7.0 12.0 0.00 0.00 0.00 91 1014.0
20260906022504 58 273 6.0 12.0 0.00 0.00 0.00 91 1013.0
20260906022003 58 272 7.0 15.0 0.00 0.00 0.00 91 1013.0
20260906021504 58 273 6.0 15.0 0.00 0.00 0.00 91 1013.0
20260906020504 58 262 6.0 10.0 0.00 0.00 0.00 91 1013.0
20260906020003 58 263 5.0 10.0 0.00 0.00 0.00 91 1013.0
20260906014504 58 258 6.0 12.0 0.00 0.00 0.00 91 1012.0
20260906013504 58 272 7.0 13.0 0.00 0.00 0.00 91 1012.0
20260906013003 58 262 7.0 13.0 0.00 0.00 0.00 91 1012.0
20260906012505 58 262 7.0 13.0 0.00 0.00 0.00 92 1012.0
20260906012004 58 276 6.0 14.0 0.00 0.00 0.00 92 1012.0
20260906011004 58 266 7.0 11.0 0.00 0.00 0.00 92 1012.0
20260906010504 57 257 6.0 14.0 0.00 0.00 0.00 92 1012.0
20260906010005 57 257 5.0 14.0 0.00 0.00 0.00 92 1012.0
20260906005503 57 267 5.0 10.0 0.00 0.00 0.00 92 1013.0
20260906005004 57 265 5.0 10.0 0.00 0.00 0.00 92 1013.0
20260906004503 57 255 6.0 12.0 0.00 0.00 0.00 92 1013.0
20260906003503 57 261 6.0 10.0 0.00 0.00 0.00 92 1012.0
20260906003004 57 260 5.0 10.0 0.00 0.00 0.00 92 1012.0
20260906002503 57 252 5.0 13.0 0.00 0.00 0.00 92 1012.0
20260906002005 57 252 6.0 13.0 0.00 0.00 0.00 92 1012.0
20260906001505 58 255 5.0 14.0 0.00 0.00 0.00 92 1012.0
20260906001005 58 262 5.0 14.0 0.00 0.00 0.00 92 1011.0
20260906000503 58 262 5.0 11.0 0.00 0.00 0.00 92 1011.0
20260905234504 58 263 6.0 11.0 0.00 0.00 0.00 92 1011.0
20260905234005 58 277 5.0 10.0 0.00 0.00 0.00 92 1011.0
20260905233004 58 277 5.0 11.0 0.00 0.00 0.00 92 1011.0
20260905232004 58 276 5.0 11.0 0.00 0.00 0.00 91 1011.0
20260905231503 58 276 5.0 10.0 0.00 0.00 0.00 91 1011.0
20260905231005 58 267 5.0 14.0 0.00 0.00 0.00 91 1010.0
20260905230005 58 274 5.0 15.0 0.00 0.00 0.00 91 1010.0
20260905225504 58 264 4.0 11.0 0.00 0.00 0.00 92 1009.0
20260905224504 58 277 4.0 12.0 0.00 0.00 0.00 92 1009.0
20260905224005 57 263 2.0 12.0 0.00 0.00 0.00 92 1010.0
20260905223503 57 280 2.0 8.0 0.00 0.00 0.00 91 1010.0
20260905223004 57 300 4.0 8.0 0.00 0.00 0.00 91 1010.0
20260905222503 57 312 4.0 8.0 0.00 0.00 0.00 91 1011.0
20260905222005 57 307 3.0 8.0 0.00 0.00 0.00 90 1011.0
20260905221504 57 309 3.0 7.0 0.00 0.00 0.00 90 1011.0
20260905221005 57 320 4.0 10.0 0.00 0.00 0.00 89 1011.0
20260905215504 57 308 4.0 10.0 0.00 0.00 0.00 89 1010.0
20260905215005 57 289 4.0 16.0 0.00 0.00 0.00 89 1010.0
20260905214504 57 289 4.0 16.0 0.00 0.00 0.00 89 1010.0
20260905214005 57 279 4.0 9.0 0.00 0.00 0.00 88 1009.0
20260905213503 57 256 4.0 10.0 0.00 0.00 0.00 88 1009.0
20260905212504 57 276 5.0 8.0 0.00 0.00 0.00 87 1009.0
20260905212004 57 272 5.0 8.0 0.00 0.00 0.00 87 1009.0
20260905211005 57 253 5.0 12.0 0.00 0.00 0.00 87 1006.9
20260905210004 57 272 6.0 16.0 0.00 0.00 0.00 86 1006.9
20260905205503 57 270 5.0 16.0 0.00 0.00 0.00 86 1008.0
20260905204503 58 260 5.0 10.0 0.00 0.00 0.00 84 1008.0
20260905204004 58 268 7.0 13.0 0.00 0.00 0.00 84 1008.0
20260905203503 58 288 7.0 13.0 0.00 0.00 0.00 83 1008.0
20260905203005 58 297 7.0 15.0 0.00 0.00 0.00 82 1008.0
20260905202504 59 294 8.0 15.0 0.00 0.00 0.00 83 1006.9
20260905201504 59 284 6.0 14.0 0.00 0.00 0.00 88 1006.9
20260905200504 59 253 10.0 18.0 0.00 0.00 0.00 88 1006.9
20260905200005 59 253 11.0 21.0 0.00 0.00 0.00 88 1006.9
20260905195503 59 264 12.0 21.0 0.00 0.00 0.00 88 1005.9
20260905194504 59 266 12.0 22.0 0.00 0.00 0.00 87 1005.9
20260905194005 59 259 12.0 21.0 0.00 0.00 0.00 87 1005.9
20260905193504 59 261 13.0 21.0 0.00 0.00 0.00 87 1005.9
20260905193005 59 260 13.0 21.0 0.00 0.00 0.00 87 1005.9
20260905192504 59 259 14.0 24.0 0.00 0.00 0.00 87 1005.9
20260905192004 59 267 14.0 24.0 0.00 0.00 0.00 86 1005.9
20260905191504 60 264 15.0 27.0 0.00 0.00 0.00 86 1005.9
20260905191005 60 269 14.0 27.0 0.00 0.00 0.00 86 1005.9
20260905190503 60 278 14.0 26.0 0.00 0.00 0.00 86 1005.9
20260905190005 60 269 14.0 28.0 0.00 0.00 0.00 85 1005.9
20260905185503 59 268 12.0 28.0 0.00 0.00 0.00 86 1004.9
20260905184503 59 270 12.0 23.0 0.00 0.00 0.00 86 1004.9
20260905184005 59 273 14.0 23.0 0.00 0.00 0.00 85 1005.9
20260905183503 59 275 14.0 21.0 0.00 0.00 0.00 85 1005.9
20260905183005 59 278 13.0 21.0 0.00 0.00 0.00 85 1005.9
20260905182503 59 272 12.0 20.0 0.00 0.00 0.00 86 1004.9
20260905182005 59 275 12.0 21.0 0.00 0.00 0.00 85 1004.9
20260905181503 59 278 12.0 22.0 0.00 0.00 0.00 85 1004.9
20260905181005 59 270 13.0 23.0 0.00 0.00 0.00 84 1004.9
20260905175504 59 276 12.0 22.0 0.00 0.00 0.00 83 1004.9
20260905174504 59 275 13.0 30.0 0.00 0.00 0.00 84 1004.9
20260905174004 59 275 13.0 30.0 0.00 0.00 0.00 83 1004.9
20260905173503 59 271 12.0 27.0 0.00 0.00 0.00 84 1004.9
20260905173004 59 269 13.0 23.0 0.00 0.00 0.00 84 1004.9
20260905172504 59 274 15.0 24.0 0.00 0.00 0.00 83 1004.9
20260905172005 59 270 14.0 27.0 0.00 0.00 0.00 83 1004.9
20260905171503 59 263 14.0 27.0 0.00 0.00 0.00 84 1004.9
20260905171005 59 271 11.0 23.0 0.00 0.00 0.00 84 1003.9
20260905170005 60 279 13.0 27.0 0.00 0.00 0.00 86 1003.9
20260905165503 60 276 13.0 27.0 0.00 0.00 0.00 83 1003.9
20260905164503 60 272 14.0 31.0 0.00 0.00 0.00 77 1003.9
20260905164005 60 263 15.0 28.0 0.00 0.00 0.00 78 1003.9
20260905163503 61 268 15.0 28.0 0.00 0.00 0.00 76 1003.9
20260905163005 61 271 14.0 24.0 0.00 0.00 0.00 76 1003.9
20260905162504 61 270 12.0 21.0 0.00 0.00 0.00 78 1004.9
20260905162004 61 282 12.0 26.0 0.00 0.00 0.00 79 1004.9
20260905161505 61 287 11.0 26.0 0.00 0.00 0.00 79 1004.9
20260905161004 61 273 10.0 19.0 0.00 0.00 0.00 78 1004.9
20260905160504 61 266 10.0 19.0 0.00 0.00 0.00 77 1004.9
20260905160004 61 276 11.0 20.0 0.00 0.00 0.00 77 1004.9
20260905155504 62 270 11.0 20.0 0.00 0.00 0.00 77 1003.9
20260905154504 61 264 11.0 19.0 0.00 0.00 0.00 75 1003.9
20260905154004 62 268 10.0 19.0 0.00 0.00 0.00 74 1003.9
20260905152503 62 275 11.0 23.0 0.00 0.00 0.00 74 1003.9
20260905152005 62 275 12.0 25.0 0.00 0.00 0.00 75 1003.9
20260905151503 62 266 13.0 25.0 0.00 0.00 0.00 74 1003.9
20260905151005 62 261 13.0 24.0 0.00 0.00 0.00 73 1003.9
20260905150503 62 268 12.0 24.0 0.00 0.00 0.00 73 1003.9
20260905150005 62 272 13.0 24.0 0.00 0.00 0.00 72 1003.9
20260905145504 62 270 13.0 26.0 0.00 0.00 0.00 71 1003.9
20260905144503 63 276 11.0 26.0 0.00 0.00 0.00 73 1003.9
20260905144005 63 265 10.0 26.0 0.00 0.00 0.00 72 1003.9
20260905143503 64 282 6.0 20.0 0.00 0.00 0.00 72 1003.9
20260905142503 63 273 9.0 22.0 0.00 0.00 0.00 73 1003.9
20260905142005 63 270 11.0 22.0 0.00 0.00 0.00 72 1003.9
20260905141503 63 258 12.0 25.0 0.00 0.00 0.00 74 1003.9
20260905141005 62 255 12.0 28.0 0.00 0.00 0.00 73 1002.9
20260905140504 62 266 13.0 28.0 0.00 0.00 0.00 71 1002.9
20260905140005 63 276 11.0 19.0 0.00 0.00 0.00 72 1002.9
20260905135503 63 269 9.0 23.0 0.00 0.00 0.00 73 1003.9
20260905135005 63 266 10.0 23.0 0.00 0.00 0.00 75 1003.9
20260905134503 62 278 10.0 19.0 0.00 0.00 0.00 75 1003.9
20260905134005 62 270 11.0 18.0 0.00 0.00 0.00 75 1003.9
20260905133503 63 261 10.0 18.0 0.00 0.00 0.00 74 1003.9
20260905133005 63 270 10.0 18.0 0.00 0.00 0.00 75 1003.9
20260905132005 63 265 8.0 17.0 0.00 0.00 0.00 75 1004.9
20260905131503 63 270 11.0 21.0 0.00 0.00 0.00 74 1004.9
20260905131005 63 271 12.0 22.0 0.00 0.00 0.00 73 1003.9
20260905130503 64 273 11.0 22.0 0.00 0.00 0.00 74 1003.9
20260905130005 63 282 12.0 22.0 0.00 0.00 0.00 74 1003.9
20260905125503 63 281 11.0 22.0 0.00 0.00 0.00 75 1003.9
20260905125004 63 279 11.0 20.0 0.00 0.00 0.00 76 1003.9
20260905124504 63 282 11.0 20.0 0.00 0.00 0.00 74 1003.9
20260905124004 63 281 9.0 17.0 0.00 0.05 0.00 75 1003.9
20260905123005 62 270 7.0 17.0 0.00 0.05 0.00 79 1003.9
20260905122503 62 257 8.0 20.0 0.00 0.05 0.00 81 1003.9
20260905122005 62 263 10.0 20.0 0.00 0.05 0.00 79 1003.9
20260905121503 62 276 9.0 20.0 0.00 0.05 0.00 77 1003.9
20260905121005 63 271 9.0 26.0 0.00 0.05 0.00 76 1003.9
20260905120503 64 264 11.0 26.0 0.00 0.05 0.00 72 1003.9
20260905120005 63 268 10.0 26.0 0.00 0.05 0.00 73 1003.9
20260905115503 63 287 9.0 18.0 0.00 0.05 0.00 75 1003.9
20260905115005 63 280 9.0 18.0 0.00 0.05 0.00 75 1003.9
20260905114503 64 269 8.0 17.0 0.00 0.05 0.00 74 1003.9
20260905114005 64 274 7.0 16.0 0.00 0.05 0.00 76 1002.9
20260905113503 64 272 6.0 16.0 0.00 0.05 0.00 74 1002.9
20260905113004 64 265 6.0 14.0 0.00 0.05 0.00 76 1002.9
20260905112504 63 277 5.0 13.0 0.00 0.05 0.00 78 1002.9
20260905112004 63 267 6.0 17.0 0.00 0.05 0.00 78 1002.9
20260905111504 63 265 7.0 17.0 0.00 0.10 0.00 78 1002.9
20260905111004 63 253 7.0 18.0 0.00 0.10 0.00 77 1002.9
20260905110504 63 236 5.0 18.0 0.00 0.10 0.00 78 1002.9
20260905110004 63 266 6.0 17.0 0.00 0.10 0.00 78 1002.9
20260905105503 62 279 7.0 17.0 0.00 0.10 0.00 77 1002.9
20260905105005 63 264 7.0 21.0 0.00 0.10 0.00 74 1002.9
20260905104503 63 254 7.0 21.0 0.00 0.10 0.00 75 1002.9
20260905104005 63 272 7.0 19.0 0.00 0.10 0.00 77 1002.9
20260905103503 63 265 6.0 19.0 0.00 0.10 0.00 76 1002.9
20260905102504 63 267 7.0 16.0 0.00 0.10 0.00 78 1002.9
20260905102004 62 268 7.0 18.0 0.00 0.10 0.00 79 1002.9
20260905101503 62 265 7.0 18.0 0.00 0.10 0.00 77 1002.9
20260905101005 62 262 6.0 15.0 0.00 0.10 0.00 77 1002.9
20260905100503 62 250 6.0 12.0 0.00 0.10 0.00 78 1002.9
20260905100005 62 253 7.0 12.0 0.00 0.10 0.00 79 1002.9
20260905095504 62 282 7.0 14.0 0.00 0.10 0.00 80 1002.9
20260905095005 62 292 7.0 14.0 0.00 0.10 0.00 78 1002.9
20260905094503 62 271 8.0 16.0 0.00 0.10 0.00 77 1002.9
20260905094005 62 263 7.0 16.0 0.00 0.10 0.00 77 1002.9
20260905093504 62 257 5.0 16.0 0.00 0.10 0.00 78 1002.9
20260905093004 63 250 5.0 16.0 0.00 0.10 0.00 77 1002.9
20260905092503 62 264 6.0 12.0 0.00 0.10 0.00 81 1001.9
20260905092005 62 263 7.0 16.0 0.00 0.10 0.00 79 1001.9
20260905091503 62 266 7.0 16.0 0.00 0.10 0.00 80 1001.9
20260905091005 62 281 6.0 15.0 0.00 0.10 0.00 79 1001.9
20260905090503 61 285 8.0 15.0 0.00 0.10 0.00 80 1001.9
20260905090004 61 278 10.0 18.0 0.00 0.10 0.00 79 1001.9
20260905085503 60 260 11.0 21.0 0.00 0.10 0.00 81 1000.9
20260905084503 60 267 11.0 21.0 0.00 0.10 0.00 81 1000.9
20260905084004 60 268 10.0 21.0 0.00 0.10 0.00 84 1000.9
20260905083005 60 274 9.0 29.0 0.00 0.10 0.00 85 1000.9
20260905082503 60 277 9.0 29.0 0.00 0.10 0.00 83 1001.9
20260905082005 61 280 10.0 22.0 0.00 0.10 0.00 82 1001.9
20260905081005 60 276 9.0 23.0 0.00 0.10 0.00 81 1001.9
20260905080503 60 270 10.0 23.0 0.00 0.10 0.00 81 1001.9
20260905080007 60 273 12.0 24.0 0.00 0.10 0.00 82 1001.9
20260905075504 60 277 11.0 24.0 0.00 0.10 0.00 81 1001.9
20260905075005 60 273 8.0 18.0 0.00 0.10 0.00 83 1001.9
20260905074503 60 263 10.0 19.0 0.00 0.10 0.00 83 1001.9
20260905074004 60 269 10.0 19.0 0.00 0.10 0.00 83 1001.9
20260905073503 60 268 10.0 22.0 0.00 0.10 0.00 85 1001.9
20260905073004 60 266 11.0 22.0 0.00 0.10 0.00 84 1001.9
20260905072503 59 270 10.0 22.0 0.00 0.10 0.00 84 1001.9
20260905072005 59 264 8.0 21.0 0.00 0.10 0.00 85 1001.9
20260905071503 59 270 6.0 15.0 0.00 0.10 0.00 86 1001.9
20260905071004 59 278 8.0 21.0 0.00 0.10 0.00 85 1000.9
20260905070503 59 272 9.0 21.0 0.00 0.10 0.00 85 1000.9
20260905070005 59 270 9.0 21.0 0.00 0.10 0.00 86 1000.9
20260905065503 59 262 11.0 24.0 0.00 0.10 0.00 86 1000.9
20260905065004 58 262 13.0 24.0 0.00 0.10 0.00 85 1000.9
20260905064005 58 270 11.0 21.0 0.00 0.10 0.00 86 999.9
20260905063503 58 266 11.0 18.0 0.00 0.10 0.00 87 999.9
20260905063004 58 267 11.0 21.0 0.00 0.10 0.00 88 999.9
20260905062004 58 277 11.0 19.0 0.00 0.10 0.00 89 999.9
20260905061503 58 259 12.0 24.0 0.00 0.10 0.00 90 999.9
20260905061005 58 248 12.0 24.0 0.00 0.10 0.00 90 998.9
20260905060503 58 263 10.0 18.0 0.00 0.10 0.00 92 998.9